Weather History for Ajaccio, France

Change the Weather History Date:

Saturday, December 7, 2013

  Actual Average Record
Temperature  
Mean Temperature 50 °F -  
Max Temperature 62 °F 56 °F 68 °F (1996)
Min Temperature 39 °F 39 °F 30 °F (1998)
Degree Days  
Heating Degree Days 14    
Moisture  
Dew Point 43 °F    
Average Humidity 80    
Maximum Humidity 93    
Minimum Humidity 52    
Precipitation  
Precipitation 0.00 in 0.10 in - ()
Sea Level Pressure  
Sea Level Pressure 30.15 in    
Wind  
Wind Speed 7 mph ()    
Max Wind Speed 13 mph    
Max Gust Speed -    
Visibility 7.2 miles    
Events      
Averages and records for this station are not official NWS values.
T = Trace of Precipitation, MM = Missing Value Source: Averaged Metar Reports

Daily Weather History Graph

Daily Weather History Graph

Search for Another Location

Airport:

Trip Planner

Search our weather history database for the weather conditions in past years. The results will help you decide how hot, cold, wet, or windy it might be!

Date:

Astronomy

Dec. 07, 2013 Rise Set
Actual Time 7:38 AM CET 4:53 PM CET
Civil Twilight 7:07 AM CET 5:24 PM CET
Nautical Twilight 6:32 AM CET 5:59 PM CET
Astronomical Twilight 5:58 AM CET 6:33 PM CET
Moon 11:10 AM CET (12/7) 10:19 PM CET (12/7)
Length of Visible Light 10h 17m
Length of Day
9h 14m
Waxing Crescent, 26% of the Moon is Illuminated
Dec 7
Waxing Crescent
Dec 9
First Quarter
Dec 17
Full
Dec 25
Last Quarter
Jan 1
New

Hourly Weather History & Observations

Time (CET) Temp. Windchill Dew Point Humidity Pressure Visibility Wind Dir Wind Speed Gust Speed Precip Events Conditions
12:00 AM 42.8 °F 38.6 °F 39.2 °F 87% 30.04 in - NE 6.9 mph - N/A   Clear
12:30 AM 42.8 °F 36.6 °F 39.2 °F 87% 30.04 in 6.2 mi NE 11.5 mph - N/A   Unknown
1:00 AM 42 °F - 39 °F 83% 30.04 in 16 mi NE 6.9 mph - -   Clear
1:00 AM 42.8 °F 38.6 °F 39.2 °F 87% 30.04 in 6.2 mi NE 6.9 mph - N/A   Unknown
1:30 AM 42.8 °F 38.0 °F 39.2 °F 87% 30.04 in 6.2 mi NE 8.1 mph - N/A   Unknown
2:00 AM 41.0 °F 36.4 °F 37.4 °F 87% 30.04 in 6.2 mi NE 6.9 mph - N/A   Unknown
2:30 AM 41.0 °F 35.8 °F 37.4 °F 87% 30.04 in 6.2 mi ENE 8.1 mph - N/A   Unknown
3:00 AM 41.0 °F 35.2 °F 37.4 °F 87% 30.06 in 6.2 mi NE 9.2 mph - N/A   Unknown
3:30 AM 39.2 °F 34.2 °F 37.4 °F 93% 30.06 in 6.2 mi NE 6.9 mph - N/A   Unknown
4:00 AM 40 °F - 37 °F 86% 30.08 in 31 mi NNE 9.2 mph - -   Clear
4:00 AM 41.0 °F 35.2 °F 37.4 °F 87% 30.06 in 6.2 mi NNE 9.2 mph - N/A   Unknown
4:30 AM 39.2 °F 33.0 °F 37.4 °F 93% 30.06 in 6.2 mi NE 9.2 mph - N/A   Unknown
5:00 AM 41.0 °F 35.8 °F 37.4 °F 87% 30.06 in 6.2 mi NE 8.1 mph - N/A   Unknown
5:30 AM 39.2 °F 33.0 °F 37.4 °F 93% 30.09 in 6.2 mi NE 9.2 mph - N/A   Unknown
6:00 AM 41.0 °F 35.8 °F 35.6 °F 81% 30.09 in - NE 8.1 mph - N/A   Clear
6:30 AM 39.2 °F 32.0 °F 35.6 °F 87% 30.09 in - NNE 11.5 mph - N/A   Clear
7:00 AM 41 °F - 37 °F 82% 30.11 in 19 mi NE 10.4 mph - -  
7:00 AM 41.0 °F 34.7 °F 37.4 °F 87% 30.09 in - NE 10.4 mph - N/A   Clear
7:30 AM 41.0 °F 36.4 °F 37.4 °F 87% 30.12 in 6.2 mi NNE 6.9 mph - N/A   Partly Cloudy
8:00 AM 39.2 °F 34.2 °F 35.6 °F 87% 30.12 in 6.2 mi NE 6.9 mph - N/A   Partly Cloudy
8:30 AM 41.0 °F 35.8 °F 37.4 °F 87% 30.12 in 6.2 mi NE 8.1 mph - N/A   Partly Cloudy
9:00 AM 42.8 °F 36.6 °F 39.2 °F 87% 30.15 in 6.2 mi NE 11.5 mph - N/A   Partly Cloudy
9:30 AM 46.4 °F 42.9 °F 41.0 °F 81% 30.15 in 6.2 mi NE 6.9 mph - N/A   Partly Cloudy
10:00 AM 50 °F - 42 °F 65% 30.18 in 19 mi NE 6.9 mph - -   Scattered Clouds
10:00 AM 50.0 °F - 41.0 °F 71% 30.15 in 6.2 mi NE 6.9 mph - N/A   Partly Cloudy
10:30 AM 51.8 °F - 42.8 °F 71% 30.18 in 6.2 mi NE 5.8 mph - N/A   Partly Cloudy
11:00 AM 55.4 °F - 42.8 °F 63% 30.18 in 6.2 mi NE 4.6 mph - N/A   Partly Cloudy
11:30 AM 59.0 °F - 46.4 °F 63% 30.18 in 6.2 mi NE 3.5 mph - N/A   Partly Cloudy
12:00 PM 59.0 °F - 46.4 °F 63% 30.18 in 6.2 mi West 3.5 mph - N/A   Partly Cloudy
12:30 PM 59.0 °F - 48.2 °F 67% 30.18 in 6.2 mi Variable 1.2 mph - N/A   Partly Cloudy
1:00 PM 60 °F - 47 °F 52% 30.19 in 25 mi West 1.2 mph - -   Scattered Clouds
1:00 PM 60.8 °F - 46.4 °F 59% 30.18 in 6.2 mi Variable 2.3 mph - N/A   Partly Cloudy
1:30 PM 62.6 °F - 48.2 °F 59% 30.18 in 6.2 mi Calm Calm - N/A   Partly Cloudy
2:00 PM 62.6 °F - 48.2 °F 59% 30.18 in 6.2 mi Variable 2.3 mph - N/A   Partly Cloudy
2:30 PM 60.8 °F - 50.0 °F 68% 30.18 in 6.2 mi Variable 1.2 mph - N/A   Partly Cloudy
3:00 PM 59.0 °F - 50.0 °F 72% 30.18 in 6.2 mi SW 10.4 mph - N/A   Scattered Clouds
3:30 PM 59.0 °F - 50.0 °F 72% 30.18 in 6.2 mi SW 10.4 mph - N/A   Scattered Clouds
4:00 PM 60 °F - 51 °F 64% 30.20 in 25 mi SW 11.5 mph - -   Partly Cloudy
4:00 PM 60.8 °F - 51.8 °F 72% 30.18 in 6.2 mi SW 11.5 mph - N/A   Scattered Clouds
4:30 PM 59.0 °F - 50.0 °F 72% 30.18 in 6.2 mi SSW 11.5 mph - N/A   Partly Cloudy
5:00 PM 57.2 °F - 50.0 °F 77% 30.21 in 6.2 mi SSW 12.7 mph - N/A   Scattered Clouds
5:30 PM 55.4 °F - 48.2 °F 77% 30.21 in 6.2 mi SE 4.6 mph - N/A   Scattered Clouds
6:00 PM 51.8 °F - 48.2 °F 88% 30.21 in 6.2 mi ENE 4.6 mph - N/A   Mostly Cloudy
6:30 PM 51.8 °F - 48.2 °F 88% 30.21 in 6.2 mi ENE 4.6 mph - N/A   Mostly Cloudy
7:00 PM 50 °F - 47 °F 85% 30.22 in 12 mi ENE 3.5 mph - -   Mostly Cloudy
7:00 PM 50.0 °F - 46.4 °F 87% 30.21 in 6.2 mi ENE 4.6 mph - N/A   Scattered Clouds
7:30 PM 48.2 °F - 46.4 °F 93% 30.21 in 6.2 mi ENE 4.6 mph - N/A   Partly Cloudy
8:00 PM 48.2 °F - 44.6 °F 87% 30.21 in 6.2 mi East 4.6 mph - N/A   Partly Cloudy
8:30 PM 46.4 °F 44.3 °F 42.8 °F 87% 30.24 in 6.2 mi NE 4.6 mph - N/A   Partly Cloudy
9:00 PM 48.2 °F - 44.6 °F 87% 30.24 in 6.2 mi East 6.9 mph - N/A   Partly Cloudy
9:30 PM 48.2 °F - 44.6 °F 87% 30.24 in 6.2 mi East 6.9 mph - N/A   Mostly Cloudy
10:00 PM 48 °F - 45 °F 85% 30.27 in 12 mi NE 5.8 mph - -   Mostly Cloudy
10:00 PM 48.2 °F - 44.6 °F 87% 30.24 in 6.2 mi ENE 6.9 mph - N/A   Mostly Cloudy
10:30 PM 48.2 °F - 44.6 °F 87% 30.27 in 6.2 mi NE 5.8 mph - N/A   Mostly Cloudy
11:00 PM 46.4 °F 42.4 °F 44.6 °F 93% 30.27 in 6.2 mi NE 8.1 mph - N/A   Mostly Cloudy
11:30 PM 48.2 °F - 44.6 °F 87% 30.27 in 6.2 mi ENE 8.1 mph - N/A   Mostly Cloudy